Location: Wapato
(46.4478°N, 120.4212°W)
Time: 23:52:47
(UTC+00:00)

A-11 Canister half - All Passes

Search period start: 11 May 2026 00:00
Search period end: 21 May 2026 00:00
Orbit: 1515 x 1684 km, 47.2° (Epoch: 11 May)

Date Brightness Start Highest point End Pass type
(mag) Time Alt. Az. Time Alt. Az. Time Alt. Az.
11 May - 05:11:06 10° S 05:18:43 29° SE 05:26:13 10° E visible
11 May - 07:13:13 10° SW 07:22:28 69° SSE 07:31:38 10° ENE visible
11 May - 09:17:59 10° W 09:27:19 85° N 09:36:39 10° E visible
11 May - 11:23:03 10° WNW 11:32:17 76° SSW 11:41:37 10° ESE visible
11 May - 13:28:13 10° WNW 13:36:15 34° SW 13:44:25 10° SSE daylight
12 May - 04:48:22 10° S 04:55:47 27° SE 05:03:05 10° E visible
12 May - 06:50:13 10° SW 06:59:28 67° SSE 07:08:36 10° ENE visible
12 May - 08:54:56 10° W 09:04:16 86° N 09:13:36 10° E visible
12 May - 11:00:01 10° WNW 11:09:15 78° SSW 11:18:36 10° ESE visible
12 May - 13:05:08 10° WNW 13:13:17 36° SW 13:21:35 10° SSE daylight
13 May - 04:25:38 10° S 04:32:51 25° SE 04:39:56 10° E visible
13 May - 06:27:13 10° SW 06:36:27 65° SSE 06:45:33 10° ENE visible
13 May - 08:31:52 10° W 08:41:13 86° N 08:50:32 10° E visible
13 May - 10:36:58 10° WNW 10:46:14 80° SSW 10:55:34 10° ESE visible
13 May - 12:42:03 10° WNW 12:50:20 38° SW 12:58:44 10° SSE daylight
14 May - 04:02:56 10° S 04:09:55 24° SE 04:16:46 10° E visible
14 May - 06:04:14 10° SW 06:13:27 62° SSE 06:22:31 10° ENE visible
14 May - 08:08:49 10° W 08:18:10 87° N 08:27:29 10° E visible
14 May - 10:13:55 10° WNW 10:23:12 82° SSW 10:32:31 10° ESE visible
14 May - 12:18:59 10° WNW 12:27:22 41° SW 12:35:53 10° SSE daylight
14 May - 14:28:55 10° WSW 14:30:12 10° WSW 14:31:29 10° SW daylight
15 May - 03:40:16 10° S 03:46:59 22° SE 03:53:35 10° E daylight
15 May - 05:41:15 10° SW 05:50:28 60° SSE 05:59:29 10° ENE visible
15 May - 07:45:44 10° W 07:55:08 87° N 08:04:26 10° E visible
15 May - 09:50:53 10° WNW 10:00:11 84° SSW 10:09:29 10° ESE visible
15 May - 11:55:55 10° WNW 12:04:24 43° SW 12:13:00 10° SSE daylight
15 May - 14:04:32 10° WSW 14:07:18 12° WSW 14:10:05 10° SW daylight
16 May - 03:17:38 10° S 03:24:03 21° SE 03:30:21 10° E daylight
16 May - 05:18:17 10° SW 05:27:27 57° SSE 05:36:27 10° ENE visible
16 May - 07:22:40 10° W 07:32:05 88° N 07:41:23 10° E visible
16 May - 09:27:50 10° WNW 09:37:09 85° SSW 09:46:27 10° ESE visible
16 May - 11:32:51 10° WNW 11:41:26 45° SW 11:50:06 10° SSE visible
16 May - 13:40:45 10° W 13:44:24 13° WSW 13:48:05 10° SSW daylight
17 May - 02:55:02 10° SSE 03:01:07 19° SE 03:07:07 10° E daylight
17 May - 04:55:19 10° SW 05:04:28 55° SSE 05:13:24 10° ENE visible
17 May - 06:59:36 10° WSW 07:09:03 89° N 07:18:20 10° E visible
17 May - 09:04:47 10° WNW 09:14:06 87° SSW 09:23:25 10° ESE visible
17 May - 11:09:47 10° WNW 11:18:28 47° SW 11:27:13 10° SSE visible
17 May - 13:17:11 10° W 13:21:30 14° SW 13:25:51 10° SSW daylight
18 May - 02:32:29 10° SSE 02:38:13 18° SE 02:43:49 10° E daylight
18 May - 04:32:21 10° SW 04:41:28 53° SE 04:50:22 10° ENE visible
18 May - 06:36:32 10° WSW 06:45:59 90° S 06:55:17 10° E visible
18 May - 08:41:43 10° W 08:51:04 88° SSW 09:00:22 10° ESE visible
18 May - 10:46:43 10° WNW 10:55:29 50° SW 11:04:18 10° SE visible
18 May - 12:53:44 10° W 12:58:36 16° SW 13:03:30 10° SSW daylight
19 May - 02:10:01 10° SSE 02:15:17 16° SE 02:20:29 10° E daylight
19 May - 04:09:25 10° SW 04:18:29 50° SE 04:27:19 10° ENE visible
19 May - 06:13:28 10° WSW 06:22:57 88° SSE 06:32:15 10° E visible
19 May - 08:18:40 10° W 08:28:02 90° SSW 08:37:19 10° ESE visible
19 May - 10:23:41 10° WNW 10:32:31 52° SW 10:41:23 10° SE visible
19 May - 12:30:22 10° W 12:35:41 17° SW 12:41:04 10° SSW daylight
20 May - 01:47:36 10° SSE 01:52:22 15° SE 01:57:04 10° E daylight
20 May - 03:46:29 10° SW 03:55:30 48° SE 04:04:16 10° ENE daylight
20 May - 05:50:24 10° WSW 05:59:55 87° SSE 06:09:12 10° ENE visible
20 May - 07:55:36 10° W 08:05:00 89° N 08:14:17 10° ESE visible
20 May - 10:00:37 10° WNW 10:09:32 54° SSW 10:18:27 10° SE visible
20 May - 12:07:03 10° W 12:12:46 18° SW 12:18:33 10° SSW daylight
